Tracking 29892 objects as of 21-Nov-2024
HD Live streaming from Space Station
objects crossing your sky now

STARLINK-31721

Track STARLINK-31721 now!
10-day predictions
STARLINK-31721 is classified as:


NORAD ID: 59536
Int'l Code: 2024-074C
Perigee: 449.5 km
Apogee: 452.8 km
Inclination: 43.0 °
Period: 93.5 minutes
Semi major axis: 6822 km
RCS: Unknown
Launch date: April 18, 2024
Source: United States (US)
Launch site: AIR FORCE EASTERN TEST RANGE (AFETR)
Your satellite tracking list
Your tracking list is empty




NASA's NSSDC Master Catalog

Two Line Element Set (TLE):
1 59536U 24074C   24325.89149623 -.00001328  00000-0 -24505-4 0  9999
2 59536  43.0042 152.2141 0002367 253.4015 106.6581 15.40715311 34571
Source of the keplerian elements: AFSPC